SKW3298 KSEA-KSLC

Flight info

Callsign SKW3298
Flight time N/A
Altitude 35000
Route SUMMA2 SUMMA WANTA Q154 BYI SKEES6
Aircraft E175/M-SDE3GILORVW/S

Departure

Time 2026-05-06 21:42
Airport Seattle–Tacoma International Airport (KSEA)

Arrival

Time N/A
Airport Salt Lake City International Airport (KSLC)
Time Latitude Longitude Altitude Speed Heading
2026-05-06 21:21 47.44633 -122.30468 401 ft 0 kts 89°
2026-05-06 21:32 47.44633 -122.30493 400 ft 4 kts 89°
2026-05-06 21:32 47.44629 -122.30531 398 ft 4 kts 59°
2026-05-06 21:33 47.44619 -122.30541 400 ft 1 kts
2026-05-06 21:36 47.44632 -122.30542 398 ft 5 kts 351°
2026-05-06 21:37 47.44680 -122.30591 401 ft 12 kts 319°
2026-05-06 21:37 47.44775 -122.30629 402 ft 16 kts
2026-05-06 21:37 47.44886 -122.30628 405 ft 16 kts
2026-05-06 21:37 47.44997 -122.30628 407 ft 16 kts 360°
2026-05-06 21:38 47.45108 -122.30626 410 ft 16 kts
2026-05-06 21:38 47.45222 -122.30625 417 ft 18 kts
2026-05-06 21:38 47.45370 -122.30624 421 ft 24 kts
2026-05-06 21:38 47.45529 -122.30622 423 ft 23 kts
2026-05-06 21:39 47.45686 -122.30622 434 ft 23 kts 360°
2026-05-06 21:39 47.45845 -122.30620 432 ft 24 kts
2026-05-06 21:39 47.46012 -122.30618 438 ft 24 kts
2026-05-06 21:39 47.46186 -122.30617 435 ft 26 kts
2026-05-06 21:40 47.46336 -122.30618 436 ft 13 kts 352°
2026-05-06 21:40 47.46373 -122.30714 432 ft 13 kts 246°
2026-05-06 21:40 47.46289 -122.30778 434 ft 10 kts 181°
2026-05-06 21:40 47.46284 -122.30778 439 ft 0 kts 180°
2026-05-06 21:41 47.46216 -122.30779 438 ft 36 kts 180°
2026-05-06 21:41 47.45654 -122.30785 424 ft 122 kts 180°
2026-05-06 21:41 47.44605 -122.30792 764 ft 168 kts 180°
2026-05-06 21:42 47.43380 -122.30791 1730 ft 180 kts 182°
2026-05-06 21:42 47.42147 -122.30786 2780 ft 172 kts 180°
2026-05-06 21:42 47.40926 -122.30840 3513 ft 181 kts 186°
2026-05-06 21:42 47.39594 -122.30978 4144 ft 200 kts 185°
2026-05-06 21:43 47.38151 -122.31065 4802 ft 215 kts 184°
2026-05-06 21:43 47.36575 -122.31124 5504 ft 235 kts 185°
2026-05-06 21:43 47.34846 -122.31175 6074 ft 264 kts 184°
2026-05-06 21:43 47.32926 -122.31196 6767 ft 286 kts 183°
2026-05-06 21:44 47.30898 -122.31205 7714 ft 295 kts 184°
2026-05-06 21:44 47.28847 -122.31219 8700 ft 301 kts 185°
2026-05-06 21:44 47.26740 -122.31245 9806 ft 303 kts 185°
2026-05-06 21:44 47.24586 -122.31218 10577 ft 321 kts 179°
2026-05-06 21:45 47.23112 -122.30717 11073 ft 334 kts 162°
2026-05-06 21:45 47.20324 -122.28632 12371 ft 340 kts 161°
2026-05-06 21:45 47.18072 -122.27517 13468 ft 341 kts 168°
2026-05-06 21:45 47.15782 -122.26508 14519 ft 346 kts 167°
2026-05-06 21:46 47.14251 -122.25794 15208 ft 350 kts 167°
2026-05-06 21:46 47.11148 -122.24276 16479 ft 359 kts 166°
2026-05-06 21:46 47.09551 -122.23512 16987 ft 364 kts 167°
2026-05-06 21:46 47.06323 -122.22015 18115 ft 367 kts 167°
2026-05-06 21:47 47.04703 -122.21213 18633 ft 372 kts 166°
2026-05-06 21:47 47.02233 -122.19938 19366 ft 377 kts 166°
2026-05-06 21:47 46.99731 -122.18616 20094 ft 384 kts 165°
2026-05-06 21:47 46.97219 -122.17272 20855 ft 390 kts 165°
2026-05-06 21:48 46.94641 -122.15925 21605 ft 395 kts 166°
2026-05-06 21:48 46.92020 -122.14599 22331 ft 400 kts 166°
2026-05-06 21:48 46.89397 -122.13281 22994 ft 406 kts 166°
2026-05-06 21:48 46.86699 -122.11921 23634 ft 411 kts 165°
2026-05-06 21:49 46.83961 -122.10556 24143 ft 416 kts 166°
2026-05-06 21:49 46.81226 -122.09152 24689 ft 421 kts 164°
2026-05-06 21:49 46.78441 -122.07711 25243 ft 425 kts 165°
2026-05-06 21:49 46.75650 -122.06323 25799 ft 428 kts 165°
2026-05-06 21:50 46.72811 -122.04932 26348 ft 433 kts 166°
2026-05-06 21:50 46.69931 -122.03521 26862 ft 437 kts 166°
2026-05-06 21:50 46.67038 -122.02113 27380 ft 439 kts 166°
2026-05-06 21:50 46.64166 -122.00674 27861 ft 443 kts 165°
2026-05-06 21:51 46.61233 -121.99130 28347 ft 450 kts 159°
2026-05-06 21:51 46.58573 -121.96658 28775 ft 460 kts 139°
2026-05-06 21:51 46.56553 -121.93089 29242 ft 465 kts 120°
2026-05-06 21:51 46.55118 -121.88824 29732 ft 467 kts 112°
2026-05-06 21:52 46.53887 -121.84478 30153 ft 470 kts 111°
2026-05-06 21:52 46.52618 -121.80068 30442 ft 475 kts 112°
2026-05-06 21:52 46.51286 -121.75632 30826 ft 478 kts 112°
2026-05-06 21:52 46.49933 -121.71244 31185 ft 481 kts 112°
2026-05-06 21:53 46.48546 -121.66790 31564 ft 483 kts 113°
2026-05-06 21:53 46.47121 -121.62353 31928 ft 486 kts 117°
2026-05-06 21:53 46.45435 -121.58069 32248 ft 488 kts 120°
2026-05-06 21:53 46.43660 -121.53934 32699 ft 487 kts 121°
2026-05-06 21:54 46.41858 -121.49767 33106 ft 487 kts 121°
2026-05-06 21:54 46.40078 -121.45656 33547 ft 485 kts 121°
2026-05-06 21:54 46.38276 -121.41509 33873 ft 486 kts 121°
2026-05-06 21:54 46.36478 -121.37324 34059 ft 489 kts 121°
2026-05-06 21:55 46.34701 -121.33162 34415 ft 488 kts 121°
2026-05-06 21:55 46.32905 -121.28975 34771 ft 487 kts 120°
2026-05-06 21:55 46.31107 -121.24806 35125 ft 485 kts 121°
2026-05-06 21:55 46.29311 -121.20645 35141 ft 494 kts 121°
2026-05-06 21:56 46.25629 -121.12102 35164 ft 509 kts 120°
2026-05-06 21:56 46.21883 -121.03262 35263 ft 519 kts 120°
2026-05-06 21:57 46.18162 -120.94272 35433 ft 525 kts 119°
2026-05-06 21:57 46.14463 -120.85150 35618 ft 530 kts 118°
2026-05-06 21:58 46.12614 -120.80526 35730 ft 532 kts 118°
2026-05-06 21:58 46.10789 -120.75912 35842 ft 534 kts 118°